Overview Statistics Trail Chart Weather Telemetry Raw packets
 

This is the latest recevied weather packets stored in our database for station/object NO9B. If no packets are shown the sender has not sent any weather packets the latest 10 day(s).

<< 83 84 85 86 87 88 89 >>
Time Temp. Humidity Pressure Rain* Wind** Luminosity Snow
1788094304 20.56° C 95% 1015.2 hPa 0 mm - 17 W/m² -
1788094002 20.56° C 95% 1015.3 hPa 0 mm - 19 W/m² -
1788093697 20.56° C 95% 1015.4 hPa 0.51 mm - 21 W/m² -
1788093394 20.56° C 95% 1015.4 hPa 0.51 mm - 11 W/m² -
1788093090 20.56° C 95% 1015.1 hPa 0 mm - 7 W/m² -
1788092787 20.56° C 95% 1015.1 hPa 0 mm - 5 W/m² -
1788092482 20.56° C 95% 1015.1 hPa 0 mm - 7 W/m² -
1788092178 20.56° C 95% 1015.3 hPa 0 mm - 4 W/m² -
1788091878 20.56° C 95% 1015.3 hPa 0.51 mm - 3 W/m² -
1788091578 20.56° C 95% 1015.5 hPa 6.6 mm - 2 W/m² -
1788091274 20.56° C 94% 1015 hPa 6.6 mm - 3 W/m² -
1788090970 20.56° C 94% 1015.2 hPa 1.78 mm - 2 W/m² -
1788090665 20.56° C 94% 1014.8 hPa 0.51 mm - 2 W/m² -
1788090362 20.56° C 94% 1015 hPa 7.11 mm - 2 W/m² -
1788090061 20.56° C 93% 1015 hPa 8.38 mm - 2 W/m² -
1788089756 20.56° C 93% 1015 hPa 0 mm - 1 W/m² -
1788089452 20.56° C 93% 1014.7 hPa 0 mm - 1 W/m² -
1788089148 20.56° C 94% 1014.7 hPa 0 mm - 1 W/m² -
1788088844 20.56° C 94% 1014.8 hPa 0 mm - 1 W/m² -
1788088539 20.56° C 94% 1014.9 hPa 0.51 mm - 0 W/m² -
1788088236 20° C 95% 1014.6 hPa 0.51 mm - 0 W/m² -
1788087935 20.56° C 95% 1014.6 hPa 0 mm - 0 W/m² -
1788087630 20.56° C 94% 1014.6 hPa 0 mm - 0 W/m² -
1788087325 20.56° C 94% 1014.6 hPa 0.51 mm - 0 W/m² -
1788087022 20.56° C 94% 1014.6 hPa 0.51 mm - 0 W/m² -

* Rain latest hour (hover to see other rain measurements)
** Current wind speed in m/s (hover to see current wind gust speed)